ELECTRON R/B (44635 NORAD) Tracking and Keplerian Element Data

This shows tracking and keplerian element data for the satellite.

Feedback or suggestion? Click here.




ElementValue
Catalog44635
NameELECTRON R/B
Epoch Orbit403
Epoch Day318.14942286
Epoch Year2019
RAAN36.5343
Inclination87.8943
Eccentricity0.0624816
Argument of Perigee180.4594
Mean Anonmoly179.6127
Mean Motion14.40961608
Decay Rate0.00011143
L11 44635U 19069B 19318.14942286 .00011143 00000-0 26169-3 0 9992
L22 44635 87.8943 36.5343 0624816 180.4594 179.6127 14.40961608 4034

Live tracking and technical data element details for ELECTRON R/B (NORAD 44635). ELECTRON R/B can be tracked NOW for your location showing map with azimuth and elevation plus other details from your city location.

Track the satellite on the map from your city or location and see movement details for azimuth, elevation, latitude, longitude, range, height, and movement on the map or in text.







IsCatalogInMostPopularTable: catalog: 44635, numindb: 14
Update: records affected: 1



GetName: 44635 ELECTRON R/B

Hit Count: updated at: Thu, 05 Dec 2019 16:44:02 GMT